Weather History for Asyut, Egypt

Change the Weather History Date:

Tuesday, November 13, 2012

  Actual Average Record
Temperature  
Mean Temperature 63 °F -  
Max Temperature 74 °F 74 °F - ()
Min Temperature 52 °F 48 °F - ()
Degree Days  
Heating Degree Days 2    
Growing Degree Days 13 (Base 50)    
Moisture  
Dew Point 53 °F    
Average Humidity 70    
Maximum Humidity 94    
Minimum Humidity 34    
Precipitation  
Precipitation 0.00 in 0.00 in - ()
Sea Level Pressure  
Sea Level Pressure 30.06 in    
Wind  
Wind Speed 10 mph ()    
Max Wind Speed 17 mph    
Max Gust Speed -    
Visibility 5.0 miles    
Events      
T = Trace of Precipitation, MM = Missing Value Source: Averaged Metar Reports

Daily Weather History Graph

Daily Weather History Graph

Search for Another Location

Airport:

Trip Planner

Search our weather history database for the weather conditions in past years. The results will help you decide how hot, cold, wet, or windy it might be!

Date:

Astronomy

Nov. 13, 2012 Rise Set
Actual Time 6:14 AM EET 5:05 PM EET
Civil Twilight 5:50 AM EET 5:30 PM EET
Nautical Twilight 5:22 AM EET 5:58 PM EET
Astronomical Twilight 4:54 AM EET 6:25 PM EET
Moon 5:29 AM EET (11/13) 4:42 PM EET (11/13)
Length of Visible Light 11h 40m
Length of Day
10h 51m
Waning Crescent, 0% of the Moon is Illuminated
Nov 13
Waning Crescent
Nov 14
New
Nov 20
First Quarter
Nov 28
Full
Dec 6
Last Quarter

Hourly Weather History & Observations

Time (EET) Temp. Dew Point Humidity Pressure Visibility Wind Dir Wind Speed Gust Speed Precip Events Conditions
12:00 AM 59.0 °F 50.0 °F 72% 30.09 in - NNW 12.7 mph - N/A   Clear
1:00 AM 59.0 °F 48.2 °F 67% 30.09 in - NNW 11.5 mph - N/A   Clear
2:00 AM 58 °F 52 °F 75% 30.08 in 6 mi NNW 9.2 mph - -  
2:00 AM 59.0 °F 51.8 °F 77% 30.06 in - NNW 9.2 mph - N/A   Clear
3:00 AM 59.0 °F 51.8 °F 77% 30.06 in - NNW 8.1 mph - N/A   Clear
4:00 AM 57.2 °F 51.8 °F 82% 30.06 in - NNW 9.2 mph - N/A   Clear
5:00 AM 55.4 °F 53.6 °F 94% 30.04 in 3.7 mi NNW 8.1 mph - N/A   Unknown
6:00 AM 55.4 °F 53.6 °F 94% 30.06 in 3.7 mi NNW 6.9 mph - N/A   Unknown
7:00 AM 53.6 °F 51.8 °F 94% 30.06 in 3.7 mi NNW 5.8 mph - N/A   Unknown
8:00 AM 56 °F 53 °F 85% 30.09 in 6 mi NNW 6.9 mph - -  
8:00 AM 55.4 °F 53.6 °F 94% 30.09 in - NNW 6.9 mph - N/A   Clear
9:00 AM 59.0 °F 53.6 °F 82% 30.09 in - NNW 9.2 mph - N/A   Clear
10:00 AM 62.6 °F 50.0 °F 63% 30.09 in - North 11.5 mph - N/A   Clear
11:00 AM 66.2 °F 53.6 °F 64% 30.09 in - North 16.1 mph - N/A   Clear
12:00 PM 69.8 °F 53.6 °F 56% 30.06 in - North 13.8 mph - N/A   Clear
1:00 PM 71.6 °F 51.8 °F 50% 30.04 in - North 15.0 mph - N/A   Clear
2:00 PM 73 °F 50 °F 34% 30.01 in 6 mi 16.1 mph - -   Clear
2:00 PM 73.4 °F 50.0 °F 44% 30.04 in - North 16.1 mph - N/A   Clear
3:00 PM 73.4 °F 50.0 °F 44% 30.01 in - North 11.5 mph - N/A   Clear
4:00 PM 71.6 °F 50.0 °F 46% 30.01 in - NNW 16.1 mph - N/A   Clear
5:00 PM 71.6 °F 55.4 °F 57% 30.01 in - NNW 16.1 mph - N/A   Clear
6:00 PM 68.0 °F 53.6 °F 60% 30.04 in - NNW 17.3 mph - N/A   Clear
7:00 PM 66.2 °F 53.6 °F 64% 30.04 in - NW 17.3 mph - N/A   Clear
8:00 PM 64 °F 54 °F 63% 30.04 in 6 mi NW 16.1 mph - -  
8:00 PM 64.4 °F 55.4 °F 73% 30.04 in - NNW 16.1 mph - N/A   Clear
9:00 PM 62.6 °F 55.4 °F 77% 30.06 in - NNW 12.7 mph - N/A   Clear
10:00 PM 62.6 °F 55.4 °F 77% 30.06 in - NW 10.4 mph - N/A   Clear
11:00 PM 59.0 °F 55.4 °F 88% 30.06 in 5.0 mi NW 8.1 mph - N/A   Unknown